Location: Eaton
(41.3139°N, 82.0207°W)
Time: 13:20:17
(UTC+00:00)

Cosmos 2285 Rocket - Pass Details

Date: 17 June 2021
Orbit: 971 x 998 km, 74.0° (Epoch: 30 July)

Event Time Altitude Azimuth Distance (km) Brightness Sun altitude
Rises 01:47:57 0° 191° (S) 3,702 6.7 -7.5°
Reaches altitude 10° 01:50:30 10° 189° (S) 2,757 6.1 -7.9°
Maximum altitude 01:56:53 73° 106° (ESE) 1,043 4.0 -8.8°
Drops below altitude 10° 02:03:17 10° 23° (NNE) 2,770 6.6 -9.7°
Sets 02:05:51 0° 22° (NNE) 3,721 7.3 -10.0°
